Weather History for Durango, CO

Change the Weather History Date:

Wednesday, June 13, 2012

  Actual Average Record
Temperature  
Mean Temperature 64 °F 61 °F  
Max Temperature 88 °F 81 °F 91 °F (2013)
Min Temperature 40 °F 42 °F 34 °F (1999)
Degree Days  
Heating Degree Days 1 4  
Month to date heating degree days 22 76  
Since 1 June heating degree days 22 76  
Since 1 July heating degree days 6489 7084  
Cooling Degree Days 0 1  
Month to date cooling degree days 4 6  
Year to date cooling degree days 4 7  
Since 1 June cooling degree days 4 6  
Growing Degree Days 16 (Base 50)    
Moisture  
Dew Point 11 °F    
Average Humidity 22    
Maximum Humidity 40    
Minimum Humidity 3    
Precipitation  
Precipitation 0.00 in 0.02 in 0.60 in (1972)
Month to date precipitation T 0.16  
Year to date precipitation 2.68 5.59  
Sea Level Pressure  
Sea Level Pressure 29.80 in    
Wind  
Wind Speed 5 mph (WNW)    
Max Wind Speed 22 mph    
Max Gust Speed 26 mph    
Visibility 10 miles    
Events      
T = Trace of Precipitation, MM = Missing Value Source: NWS Daily Summary

Daily Weather History Graph

Daily Weather History Graph

Search for Another Location

Airport:

Trip Planner

Search our weather history database for the weather conditions in past years. The results will help you decide how hot, cold, wet, or windy it might be!

Date:

Astronomy

Jun. 13, 2012 Rise Set
Actual Time 5:50 AM MDT 8:32 PM MDT
Civil Twilight 5:19 AM MDT 9:03 PM MDT
Nautical Twilight 4:41 AM MDT 9:41 PM MDT
Astronomical Twilight 3:57 AM MDT 10:24 PM MDT
Moon 1:59 AM MDT (6/13) 3:26 PM MDT (6/13)
Length of Visible Light 15h 43m
Length of Day
14h 41m
Waning Crescent, 28% of the Moon is Illuminated
Jun 13
Waning Crescent
Jun 19
New
Jun 26
First Quarter
Jul 3
Full
Jul 10
Last Quarter

Hourly Weather History & Observations

Time (MDT) Temp. Windchill Dew Point Humidity Pressure Visibility Wind Dir Wind Speed Gust Speed Precip Events Conditions
12:53 AM 51.1 °F - 19.0 °F 28% 29.88 in 10.0 mi Calm Calm - N/A   Clear
1:53 AM 52.0 °F - 19.9 °F 28% 29.87 in 10.0 mi NNW 3.5 mph - N/A   Clear
2:53 AM 45.0 °F - 18.0 °F 34% 29.88 in 10.0 mi Calm Calm - N/A   Clear
4:53 AM 45.0 °F 43.5 °F 21.9 °F 40% 29.88 in 10.0 mi NNE 3.5 mph - N/A   Clear
5:53 AM 44.1 °F - 19.9 °F 38% 29.89 in 10.0 mi Calm Calm - N/A   Clear
6:53 AM 48.9 °F - 21.9 °F 35% 29.89 in 10.0 mi Calm Calm - N/A   Clear
8:53 AM 66.0 °F - 23.0 °F 20% 29.88 in 10.0 mi North 3.5 mph - N/A   Clear
9:53 AM 73.9 °F - 21.0 °F 14% 29.86 in 10.0 mi East 5.8 mph - N/A   Clear
10:53 AM 79.0 °F - 18.0 °F 10% 29.84 in 10.0 mi ENE 6.9 mph - N/A   Clear
11:53 AM 80.1 °F - 8.1 °F 6% 29.83 in 10.0 mi Variable 4.6 mph - N/A   Clear
12:53 PM 84.0 °F - 3.0 °F 4% 29.82 in 10.0 mi South 10.4 mph 17.3 mph N/A   Clear
1:53 PM 84.0 °F - -2.0 °F 4% 29.79 in 10.0 mi WSW 9.2 mph - N/A   Clear
2:53 PM 84.9 °F - -2.0 °F 4% 29.79 in 10.0 mi SW 9.2 mph - N/A   Clear
3:53 PM 87.1 °F - -5.1 °F 4% 29.77 in 10.0 mi WSW 8.1 mph 26.5 mph N/A   Clear
4:53 PM 86.0 °F - -5.1 °F 4% 29.75 in 10.0 mi West 10.4 mph - N/A   Clear
5:53 PM 84.9 °F - -0.0 °F 4% 29.73 in 10.0 mi WSW 8.1 mph 16.1 mph N/A   Clear
6:53 PM 84.0 °F - 1.0 °F 4% 29.70 in 10.0 mi West 8.1 mph - N/A   Clear
7:53 PM 82.0 °F - 7.0 °F 6% 29.68 in 10.0 mi WSW 8.1 mph - N/A   Clear
8:53 PM 77.0 °F - 8.1 °F 7% 29.67 in 10.0 mi NW 3.5 mph - N/A   Clear
9:53 PM 69.1 °F - 16.0 °F 13% 29.69 in 10.0 mi Calm Calm - N/A   Clear
10:53 PM 63.0 °F - 19.0 °F 18% 29.71 in 10.0 mi North 5.8 mph - N/A   Clear
11:53 PM 57.9 °F - 17.1 °F 20% 29.73 in 10.0 mi Calm Calm - N/A   Clear